Location: Tambov
(52.7163°N, 41.4075°E)
Time: 02:57:06
(UTC+03:00)

Envisat - Pass Details

Date: 08 March 2021
Orbit: 764 x 766 km, 98.1° (Epoch: 22 April)

Event Time Altitude Azimuth Distance (km) Brightness Sun altitude
Rises 04:50:39 0° 24° (NNE) 3,247 6.8 -18.0°
Reaches altitude 10° 04:53:30 10° 39° (NE) 2,315 6.3 -17.6°
Maximum altitude 04:57:25 22° 90° (E) 1,638 5.6 -17.0°
Drops below altitude 10° 05:01:18 10° 140° (SE) 2,300 5.8 -16.5°
Sets 05:04:06 0° 156° (SSE) 3,221 6.4 -16.0°
